Location: Aldenham
(51.6667°N, 0.3500°W)
Time: 08:21:59
(UTC+00:00)

Explorer 7 - Pass Details

Date: 20 February 2026
Orbit: 430 x 541 km, 50.2° (Epoch: 12 March)

Event Time Altitude Azimuth Distance (km) Brightness Sun altitude
Rises 20:31:34 0° 275° (W) 2,547 11.3 -29.2°
Reaches altitude 10° 20:34:57 10° 243° (WSW) 1,694 9.8 -29.7°
Enters shadow 20:35:28 11° 235° (SW) 1,635 9.6 -29.7°
Maximum altitude 20:36:22 12° 221° (SW) 1,597 - -29.9°
Drops below altitude 10° 20:37:48 10° 199° (SSW) 1,716 - -30.1°
Sets 20:41:18 0° 167° (SSE) 2,626 - -30.6°
